GFSFLT1_prec_precacc12_126.txt.gz
Total_Precipitation_Accumulation
0.00 0.00 0.00 0.00 0.00 0.00 0.00 0.00 0.00 0.00 0.00 0.00 0.01 0.01 0.01 0.01 0.00 0.00 0.00 0.00 0.00 0.00 0.00 0.00 0.00 0.00 0.00 0.00 0.00 0.00 0.00 0.01
0.00 0.00 0.00 0.00 0.00 0.00 0.00 0.00 0.00 0.00 0.00 0.00 0.01 0.01 0.01 0.02 0.00 0.00 0.00 0.00 0.00 0.00 0.00 0.00 0.00 0.00 0.00 0.01 0.02 0.02 0.02 0.02
0.00 0.00 0.00 0.00 0.00 0.00 0.00 0.00 0.00 0.01 0.00 0.00 0.01 0.02 0.03 0.08 0.05 0.01 0.00 0.00 0.00 0.00 0.00 0.00 0.00 0.00 0.00 0.01 0.03 0.03 0.05 0.05
0.00 0.00 0.00 0.00 0.00 0.00 0.00 0.00 0.00 0.01 0.00 0.02 0.07 0.06 0.12 0.14 0.06 0.01 0.01 0.01 0.00 0.00 0.00 0.00 0.00 0.00 0.00 0.00 0.01 0.02 0.03 0.04
0.00 0.00 0.00 0.00 0.00 0.00 0.00 0.00 0.00 0.01 0.07 0.09 0.05 0.01 0.01 0.01 0.01 0.03 0.05 0.06 0.03 0.01 0.00 0.00 0.00 0.00 0.00 0.00 0.01 0.01 0.02 0.03
0.00 0.00 0.00 0.00 0.00 0.00 0.00 0.00 0.00 0.01 0.07 0.26 0.19 0.10 0.07 0.04 0.02 0.01 0.05 0.12 0.17 0.08 0.06 0.05 0.04 0.04 0.04 0.01 0.01 0.01 0.02 0.02
0.03 0.02 0.01 0.01 0.02 0.01 0.00 0.00 0.00 0.01 0.04 0.08 0.27 0.24 0.13 0.10 0.05 0.03 0.07 0.23 0.21 0.17 0.19 0.19 0.21 0.22 0.12 0.04 0.01 0.00 0.01 0.02
0.07 0.05 0.03 0.02 0.04 0.05 0.03 0.02 0.01 0.01 0.02 0.05 0.04 0.07 0.05 0.04 0.07 0.09 0.18 0.27 0.15 0.09 0.14 0.17 0.09 0.06 0.03 0.01 0.01 0.01 0.01 0.01
0.09 0.08 0.05 0.02 0.02 0.05 0.02 0.03 0.03 0.02 0.02 0.04 0.03 0.06 0.05 0.05 0.04 0.09 0.11 0.21 0.14 0.13 0.11 0.18 0.16 0.11 0.03 0.03 0.05 0.04 0.02 0.01
0.12 0.10 0.09 0.07 0.05 0.05 0.04 0.04 0.04 0.04 0.04 0.04 0.04 0.05 0.05 0.06 0.08 0.12 0.08 0.08 0.16 0.18 0.11 0.11 0.18 0.16 0.10 0.07 0.06 0.06 0.04 0.03
0.18 0.10 0.07 0.03 0.04 0.04 0.04 0.05 0.05 0.05 0.03 0.02 0.01 0.01 0.01 0.02 0.06 0.05 0.06 0.14 0.20 0.15 0.10 0.11 0.10 0.10 0.10 0.07 0.04 0.05 0.03 0.05
0.51 0.24 0.13 0.06 0.01 0.03 0.03 0.03 0.04 0.03 0.02 0.02 0.01 0.00 0.00 0.01 0.03 0.06 0.11 0.15 0.22 0.20 0.18 0.15 0.07 0.07 0.07 0.07 0.04 0.04 0.03 0.05
0.87 0.62 0.41 0.11 0.02 0.01 0.01 0.02 0.04 0.04 0.02 0.03 0.02 0.03 0.03 0.03 0.05 0.07 0.10 0.10 0.14 0.20 0.25 0.19 0.13 0.10 0.08 0.06 0.04 0.03 0.04 0.07
0.55 0.45 0.49 0.45 0.17 0.06 0.02 0.02 0.02 0.07 0.05 0.02 0.04 0.05 0.04 0.05 0.09 0.11 0.13 0.13 0.19 0.22 0.18 0.15 0.15 0.14 0.13 0.10 0.13 0.10 0.10 0.09
0.21 0.37 0.38 0.40 0.34 0.18 0.09 0.03 0.05 0.03 0.02 0.01 0.01 0.03 0.07 0.08 0.12 0.14 0.15 0.19 0.23 0.25 0.25 0.23 0.25 0.19 0.14 0.14 0.10 0.09 0.09 0.09
0.03 0.03 0.09 0.21 0.20 0.12 0.07 0.03 0.01 0.00 0.00 0.00 0.00 0.01 0.02 0.06 0.14 0.16 0.17 0.22 0.25 0.23 0.21 0.20 0.22 0.22 0.21 0.14 0.07 0.06 0.08 0.08
0.01 0.01 0.01 0.01 0.01 0.01 0.00 0.00 0.00 0.00 0.01 0.01 0.00 0.01 0.01 0.01 0.02 0.04 0.07 0.12 0.22 0.33 0.44 0.51 0.43 0.30 0.29 0.14 0.09 0.05 0.04 0.06
0.01 0.02 0.03 0.02 0.02 0.01 0.00 0.00 0.00 0.00 0.00 0.00 0.01 0.00 0.00 0.01 0.03 0.11 0.13 0.17 0.27 0.27 0.30 0.42 0.67 0.82 0.86 0.78 0.63 0.44 0.37 0.38
0.01 0.02 0.02 0.02 0.00 0.00 0.00 0.00 0.00 0.00 0.01 0.03 0.02 0.02 0.02 0.02 0.04 0.07 0.20 0.28 0.33 0.40 0.45 0.35 0.24 0.29 0.43 0.54 0.71 0.84 0.92 0.79

GFSFLT1_prec_precacc12_132.txt.gz
Total_Precipitation_Accumulation
0.00 0.00 0.00 0.00 0.00 0.00 0.00 0.00 0.00 0.00 0.03 0.15 0.17 0.16 0.09 0.02 0.00 0.00 0.00 0.00 0.00 0.00 0.00 0.00 0.00 0.00 0.00 0.00 0.00 0.00 0.00 0.01
0.00 0.00 0.00 0.00 0.00 0.00 0.00 0.00 0.00 0.00 0.04 0.14 0.16 0.13 0.09 0.09 0.00 0.00 0.00 0.00 0.00 0.00 0.00 0.00 0.00 0.00 0.00 0.00 0.01 0.01 0.01 0.01
0.00 0.00 0.00 0.00 0.00 0.00 0.00 0.00 0.00 0.01 0.00 0.04 0.13 0.17 0.13 0.05 0.02 0.00 0.00 0.00 0.00 0.00 0.00 0.00 0.00 0.00 0.00 0.00 0.01 0.01 0.01 0.02
0.00 0.00 0.00 0.00 0.00 0.00 0.00 0.00 0.00 0.02 0.01 0.09 0.19 0.17 0.18 0.15 0.09 0.00 0.01 0.01 0.00 0.00 0.00 0.00 0.00 0.00 0.00 0.00 0.01 0.00 0.01 0.01
0.00 0.00 0.00 0.00 0.00 0.00 0.00 0.00 0.00 0.04 0.15 0.32 0.28 0.22 0.23 0.10 0.04 0.03 0.04 0.04 0.03 0.01 0.01 0.00 0.00 0.00 0.00 0.00 0.00 0.00 0.01 0.01
0.01 0.01 0.01 0.00 0.00 0.00 0.00 0.00 0.00 0.01 0.09 0.41 0.47 0.41 0.19 0.10 0.08 0.05 0.04 0.05 0.10 0.08 0.06 0.05 0.04 0.05 0.04 0.01 0.00 0.01 0.01 0.02
0.04 0.04 0.04 0.03 0.04 0.04 0.01 0.01 0.00 0.00 0.01 0.12 0.40 0.79 1.19 1.38 1.06 0.54 0.22 0.19 0.19 0.17 0.22 0.23 0.23 0.23 0.13 0.05 0.03 0.01 0.02 0.03
0.09 0.08 0.07 0.07 0.09 0.13 0.14 0.07 0.04 0.02 0.03 0.06 0.13 0.29 0.60 1.10 1.71 2.32 1.73 1.18 0.87 0.62 0.24 0.21 0.13 0.09 0.07 0.04 0.04 0.02 0.03 0.03
0.12 0.13 0.11 0.11 0.13 0.16 0.21 0.20 0.19 0.11 0.07 0.09 0.15 0.15 0.21 0.50 0.56 0.94 1.30 1.43 1.12 1.31 0.62 0.25 0.23 0.18 0.12 0.12 0.08 0.06 0.03 0.03
0.19 0.17 0.23 0.31 0.25 0.20 0.28 0.32 0.39 0.30 0.20 0.12 0.15 0.16 0.13 0.18 0.26 0.45 0.69 0.61 0.50 0.46 0.25 0.16 0.24 0.22 0.15 0.13 0.13 0.11 0.09 0.05
0.31 0.26 0.31 0.30 0.36 0.25 0.30 0.43 0.53 0.37 0.36 0.23 0.16 0.18 0.12 0.11 0.09 0.14 0.26 0.51 0.55 0.32 0.17 0.16 0.17 0.17 0.13 0.10 0.09 0.09 0.12 0.11
0.75 0.48 0.43 0.55 0.69 0.29 0.32 0.47 0.87 0.48 0.30 0.22 0.10 0.08 0.13 0.09 0.11 0.08 0.11 0.13 0.20 0.15 0.14 0.13 0.10 0.10 0.11 0.10 0.08 0.08 0.12 0.14
1.10 0.90 0.75 0.76 0.37 0.30 0.28 0.27 0.27 0.47 0.17 0.09 0.06 0.02 0.03 0.07 0.06 0.08 0.04 0.04 0.04 0.07 0.13 0.17 0.15 0.12 0.10 0.11 0.09 0.08 0.10 0.14
0.77 0.76 0.81 0.94 0.52 0.47 0.35 0.31 0.16 0.19 0.12 0.12 0.11 0.04 0.02 0.03 0.03 0.04 0.04 0.04 0.04 0.03 0.04 0.07 0.10 0.12 0.13 0.14 0.18 0.16 0.16 0.18
0.26 0.48 0.58 0.86 0.86 0.56 0.47 0.42 0.38 0.20 0.18 0.07 0.09 0.06 0.04 0.03 0.03 0.03 0.03 0.04 0.05 0.07 0.08 0.09 0.09 0.10 0.10 0.12 0.12 0.11 0.15 0.20
0.03 0.03 0.10 0.29 0.41 0.37 0.37 0.25 0.21 0.23 0.23 0.19 0.07 0.03 0.02 0.02 0.02 0.02 0.02 0.04 0.08 0.08 0.11 0.15 0.16 0.18 0.20 0.14 0.10 0.11 0.14 0.17
0.01 0.01 0.01 0.01 0.03 0.05 0.07 0.08 0.03 0.03 0.04 0.05 0.05 0.01 0.00 0.00 0.00 0.00 0.01 0.01 0.03 0.07 0.13 0.26 0.32 0.26 0.32 0.20 0.23 0.21 0.19 0.18
0.01 0.02 0.02 0.02 0.01 0.01 0.01 0.00 0.00 0.01 0.01 0.01 0.00 0.00 0.00 0.00 0.00 0.00 0.00 0.00 0.00 0.01 0.04 0.12 0.25 0.36 0.49 0.57 0.56 0.45 0.43 0.47
0.01 0.01 0.01 0.01 0.01 0.00 0.00 0.00 0.00 0.00 0.00 0.00 0.00 0.00 0.00 0.00 0.00 0.00 0.00 0.00 0.00 0.00 0.00 0.02 0.03 0.05 0.14 0.38 0.62 0.84 0.96 0.85

GFSFLT1_prec_precacc12_135.txt.gz
Total_Precipitation_Accumulation
0.00 0.00 0.00 0.00 0.00 0.00 0.00 0.00 0.00 0.00 0.03 0.15 0.19 0.29 0.26 0.25 0.25 0.17 0.10 0.01 0.00 0.00 0.00 0.00 0.00 0.00 0.01 0.01 0.00 0.00 0.00 0.01
0.00 0.00 0.00 0.00 0.00 0.00 0.00 0.00 0.00 0.00 0.04 0.14 0.15 0.15 0.15 0.15 0.20 0.25 0.21 0.07 0.00 0.00 0.00 0.00 0.00 0.00 0.00 0.00 0.01 0.01 0.00 0.01
0.00 0.00 0.00 0.00 0.00 0.00 0.00 0.00 0.00 0.00 0.00 0.04 0.12 0.17 0.17 0.08 0.08 0.21 0.28 0.15 0.03 0.00 0.00 0.00 0.00 0.00 0.00 0.00 0.01 0.01 0.01 0.01
0.00 0.00 0.00 0.00 0.00 0.00 0.00 0.00 0.00 0.02 0.01 0.08 0.16 0.16 0.18 0.18 0.18 0.09 0.05 0.13 0.03 0.01 0.00 0.00 0.00 0.00 0.00 0.00 0.00 0.00 0.01 0.01
0.00 0.00 0.00 0.00 0.00 0.00 0.00 0.00 0.00 0.04 0.14 0.31 0.28 0.23 0.24 0.10 0.04 0.07 0.07 0.18 0.10 0.00 0.00 0.00 0.00 0.00 0.00 0.00 0.00 0.01 0.01 0.01
0.01 0.01 0.01 0.00 0.00 0.00 0.00 0.00 0.00 0.01 0.09 0.40 0.47 0.42 0.19 0.11 0.14 0.26 0.25 0.20 0.23 0.10 0.02 0.01 0.02 0.03 0.03 0.01 0.00 0.01 0.01 0.02
0.04 0.04 0.04 0.03 0.04 0.04 0.01 0.01 0.00 0.00 0.01 0.12 0.41 0.79 1.20 1.40 1.16 0.76 0.52 0.44 0.46 0.35 0.13 0.08 0.07 0.12 0.09 0.05 0.03 0.02 0.05 0.03
0.08 0.08 0.07 0.07 0.09 0.13 0.14 0.07 0.04 0.02 0.03 0.06 0.16 0.30 0.61 1.11 1.78 2.48 2.37 1.83 1.65 1.60 0.84 0.35 0.20 0.10 0.06 0.08 0.06 0.03 0.06 0.09
0.11 0.13 0.11 0.12 0.13 0.17 0.21 0.20 0.18 0.09 0.07 0.09 0.19 0.19 0.23 0.51 0.67 1.02 1.86 2.42 2.17 2.40 2.47 1.67 1.05 0.56 0.39 0.34 0.18 0.11 0.07 0.11
0.19 0.17 0.23 0.31 0.26 0.21 0.29 0.33 0.47 0.39 0.24 0.17 0.20 0.23 0.19 0.22 0.31 0.68 0.96 0.91 1.08 1.37 1.50 1.19 1.35 1.47 0.98 0.59 0.45 0.43 0.38 0.17
0.30 0.26 0.32 0.31 0.41 0.27 0.36 0.62 0.91 0.63 0.55 0.42 0.37 0.36 0.26 0.19 0.11 0.21 0.52 0.92 0.95 0.80 0.74 0.61 0.60 0.72 0.77 0.41 0.25 0.25 0.30 0.26
0.58 0.40 0.43 0.59 0.76 0.33 0.39 0.75 1.48 1.24 0.78 0.52 0.55 0.32 0.42 0.20 0.13 0.10 0.22 0.31 0.49 0.56 0.53 0.42 0.38 0.29 0.25 0.18 0.12 0.10 0.15 0.18
0.78 0.63 0.54 0.75 0.41 0.43 0.39 0.42 0.45 1.27 1.02 0.65 0.46 0.20 0.16 0.19 0.12 0.10 0.08 0.12 0.13 0.17 0.22 0.33 0.29 0.18 0.14 0.12 0.12 0.11 0.11 0.15
0.48 0.56 0.63 0.89 0.54 0.60 0.56 0.56 0.40 0.45 0.48 0.59 0.35 0.14 0.04 0.04 0.13 0.15 0.07 0.11 0.08 0.07 0.11 0.16 0.18 0.15 0.13 0.14 0.16 0.15 0.16 0.17
0.16 0.27 0.40 0.74 0.88 0.60 0.60 0.68 0.68 0.43 0.40 0.25 0.42 0.23 0.05 0.03 0.03 0.09 0.08 0.04 0.09 0.12 0.09 0.09 0.09 0.10 0.08 0.06 0.07 0.09 0.13 0.18
0.01 0.02 0.07 0.24 0.41 0.37 0.38 0.27 0.31 0.42 0.42 0.36 0.19 0.11 0.04 0.02 0.01 0.02 0.01 0.03 0.05 0.07 0.11 0.11 0.10 0.09 0.10 0.07 0.06 0.07 0.09 0.14
0.00 0.01 0.00 0.01 0.02 0.05 0.08 0.10 0.04 0.04 0.05 0.10 0.14 0.05 0.03 0.01 0.00 0.00 0.01 0.01 0.01 0.03 0.06 0.10 0.11 0.12 0.23 0.16 0.20 0.22 0.21 0.18
0.01 0.01 0.01 0.01 0.01 0.01 0.00 0.01 0.01 0.02 0.02 0.01 0.00 0.01 0.01 0.01 0.00 0.00 0.00 0.00 0.00 0.00 0.02 0.06 0.08 0.14 0.19 0.16 0.17 0.16 0.21 0.31
0.00 0.01 0.01 0.01 0.00 0.00 0.00 0.00 0.00 0.00 0.00 0.00 0.00 0.00 0.00 0.00 0.00 0.00 0.00 0.00 0.00 0.00 0.00 0.00 0.00 0.00 0.01 0.04 0.15 0.25 0.28 0.30

GFSFLT1_prec_precacc12_138.txt.gz
Total_Precipitation_Accumulation
0.00 0.00 0.00 0.00 0.00 0.00 0.00 0.00 0.00 0.00 0.03 0.15 0.19 0.29 0.26 0.26 0.31 0.38 0.45 0.41 0.36 0.16 0.04 0.00 0.00 0.00 0.01 0.01 0.00 0.00 0.00 0.00
0.00 0.00 0.00 0.00 0.00 0.00 0.00 0.00 0.00 0.00 0.04 0.14 0.15 0.15 0.15 0.15 0.20 0.32 0.47 0.57 0.54 0.34 0.15 0.04 0.01 0.00 0.00 0.00 0.01 0.00 0.00 0.01
0.00 0.00 0.00 0.00 0.00 0.00 0.00 0.00 0.00 0.00 0.00 0.04 0.12 0.17 0.17 0.08 0.08 0.22 0.34 0.30 0.41 0.54 0.35 0.08 0.02 0.02 0.01 0.01 0.01 0.00 0.01 0.01
0.00 0.00 0.00 0.00 0.00 0.00 0.00 0.00 0.00 0.01 0.01 0.07 0.14 0.16 0.18 0.18 0.18 0.09 0.05 0.19 0.20 0.31 0.36 0.10 0.03 0.02 0.00 0.00 0.00 0.00 0.01 0.01
0.00 0.00 0.00 0.00 0.00 0.00 0.00 0.00 0.00 0.03 0.10 0.24 0.25 0.23 0.24 0.10 0.04 0.07 0.06 0.20 0.25 0.25 0.25 0.16 0.09 0.03 0.00 0.00 0.00 0.00 0.00 0.01
0.01 0.01 0.01 0.00 0.00 0.00 0.00 0.00 0.00 0.00 0.04 0.18 0.34 0.39 0.19 0.11 0.14 0.26 0.24 0.20 0.27 0.31 0.34 0.33 0.26 0.10 0.04 0.01 0.00 0.00 0.00 0.01
0.01 0.02 0.02 0.01 0.02 0.03 0.01 0.01 0.00 0.00 0.01 0.09 0.21 0.66 1.19 1.40 1.16 0.76 0.52 0.45 0.48 0.52 0.44 0.46 0.77 0.56 0.14 0.05 0.04 0.02 0.05 0.03
0.02 0.03 0.04 0.04 0.05 0.08 0.11 0.06 0.04 0.02 0.02 0.06 0.16 0.29 0.60 1.12 1.77 2.48 2.36 1.83 1.68 1.72 1.53 1.22 1.18 1.16 0.70 0.15 0.11 0.07 0.08 0.11
0.03 0.05 0.07 0.09 0.11 0.13 0.20 0.19 0.18 0.10 0.07 0.09 0.19 0.18 0.23 0.51 0.67 1.01 1.86 2.45 2.19 2.44 2.77 2.84 2.25 1.73 1.71 0.78 0.32 0.18 0.10 0.15
0.07 0.08 0.15 0.25 0.22 0.19 0.31 0.34 0.46 0.38 0.24 0.17 0.20 0.23 0.18 0.22 0.33 0.69 0.96 0.92 1.11 1.41 1.60 1.87 2.40 2.57 2.07 1.43 0.94 0.72 0.62 0.44
0.16 0.17 0.26 0.30 0.38 0.26 0.36 0.60 0.90 0.62 0.57 0.48 0.43 0.39 0.29 0.28 0.19 0.30 0.55 0.95 0.96 0.85 0.97 1.02 0.99 1.03 1.18 1.41 1.46 1.23 1.26 1.00
0.30 0.25 0.31 0.54 0.76 0.32 0.39 0.75 1.49 1.32 0.88 0.69 0.72 0.49 0.65 0.43 0.32 0.25 0.32 0.39 0.54 0.64 0.62 0.65 0.71 0.64 0.62 0.66 0.66 0.84 1.22 1.44
0.33 0.32 0.35 0.67 0.40 0.44 0.41 0.46 0.51 1.48 1.38 1.05 0.87 0.88 1.05 0.57 0.33 0.21 0.12 0.19 0.28 0.25 0.23 0.33 0.44 0.46 0.50 0.49 0.60 0.56 0.49 0.53
0.26 0.32 0.33 0.52 0.39 0.54 0.56 0.62 0.45 0.55 0.81 1.15 0.91 0.62 0.52 0.62 0.30 0.20 0.07 0.12 0.21 0.16 0.11 0.16 0.23 0.26 0.29 0.36 0.41 0.36 0.44 0.33
0.07 0.12 0.21 0.47 0.56 0.42 0.52 0.68 0.66 0.48 0.59 0.48 1.00 0.90 0.23 0.13 0.18 0.12 0.11 0.04 0.09 0.13 0.08 0.08 0.10 0.14 0.20 0.24 0.23 0.16 0.15 0.19
0.01 0.00 0.01 0.08 0.22 0.26 0.31 0.24 0.31 0.43 0.44 0.38 0.23 0.30 0.17 0.07 0.03 0.02 0.02 0.03 0.04 0.06 0.09 0.10 0.10 0.10 0.11 0.10 0.10 0.10 0.09 0.11
0.00 0.00 0.00 0.00 0.02 0.05 0.08 0.09 0.04 0.04 0.05 0.11 0.16 0.08 0.04 0.02 0.01 0.00 0.01 0.00 0.01 0.02 0.03 0.07 0.09 0.10 0.17 0.15 0.20 0.21 0.20 0.17
0.00 0.00 0.01 0.00 0.00 0.00 0.00 0.01 0.01 0.02 0.02 0.01 0.01 0.02 0.02 0.02 0.00 0.00 0.00 0.00 0.00 0.00 0.00 0.00 0.02 0.02 0.02 0.02 0.04 0.05 0.09 0.15
0.00 0.00 0.00 0.00 0.00 0.00 0.00 0.00 0.00 0.00 0.00 0.00 0.00 0.00 0.00 0.00 0.00 0.00 0.00 0.00 0.00 0.00 0.00 0.00 0.00 0.00 0.00 0.01 0.03 0.04 0.05 0.08

GFSFLT1_prec_precacc12_141.txt.gz
Total_Precipitation_Accumulation
0.00 0.00 0.00 0.00 0.00 0.00 0.00 0.00 0.00 0.00 0.03 0.13 0.19 0.29 0.26 0.26 0.31 0.38 0.47 0.46 0.54 0.53 0.41 0.21 0.11 0.03 0.01 0.01 0.00 0.00 0.00 0.00
0.00 0.00 0.00 0.00 0.00 0.00 0.00 0.00 0.00 0.00 0.03 0.11 0.14 0.15 0.15 0.15 0.20 0.32 0.48 0.59 0.64 0.85 0.84 0.67 0.33 0.13 0.05 0.03 0.03 0.02 0.01 0.00
0.00 0.00 0.00 0.00 0.00 0.00 0.00 0.00 0.00 0.00 0.00 0.04 0.11 0.17 0.17 0.08 0.08 0.22 0.34 0.30 0.43 0.67 0.85 0.94 1.06 0.46 0.17 0.09 0.04 0.02 0.02 0.01
0.00 0.00 0.00 0.00 0.00 0.00 0.00 0.00 0.00 0.00 0.00 0.06 0.13 0.16 0.18 0.18 0.18 0.09 0.05 0.19 0.20 0.35 0.67 0.71 0.63 0.65 0.47 0.18 0.08 0.04 0.02 0.02
0.00 0.00 0.00 0.00 0.00 0.00 0.00 0.00 0.00 0.00 0.00 0.03 0.13 0.20 0.24 0.11 0.05 0.07 0.06 0.20 0.25 0.27 0.34 0.38 0.67 0.81 0.40 0.22 0.17 0.12 0.06 0.01
0.00 0.00 0.00 0.00 0.00 0.00 0.00 0.00 0.00 0.00 0.00 0.00 0.07 0.15 0.11 0.08 0.13 0.24 0.24 0.20 0.27 0.32 0.36 0.39 0.47 0.51 0.42 0.36 0.23 0.12 0.06 0.03
0.00 0.00 0.00 0.00 0.00 0.00 0.00 0.00 0.00 0.00 0.00 0.01 0.05 0.13 0.28 0.58 0.56 0.58 0.50 0.42 0.46 0.51 0.43 0.47 0.86 0.96 0.73 0.47 0.60 0.37 0.19 0.12
0.00 0.00 0.00 0.01 0.01 0.01 0.02 0.02 0.02 0.01 0.01 0.02 0.06 0.13 0.27 0.42 0.65 1.44 2.17 1.81 1.69 1.72 1.52 1.21 1.21 1.35 1.68 0.93 0.62 0.73 0.48 0.31
0.01 0.01 0.02 0.04 0.06 0.04 0.05 0.07 0.10 0.08 0.06 0.06 0.10 0.12 0.16 0.40 0.51 0.71 1.75 2.45 2.21 2.45 2.75 2.84 2.26 1.80 2.04 1.93 1.16 0.93 0.91 0.55
0.01 0.02 0.05 0.14 0.13 0.10 0.16 0.22 0.36 0.30 0.21 0.16 0.18 0.19 0.16 0.20 0.31 0.65 0.93 0.95 1.16 1.46 1.60 1.87 2.40 2.56 2.14 1.98 1.72 1.30 1.23 1.13
0.01 0.03 0.09 0.13 0.25 0.16 0.24 0.48 0.82 0.59 0.51 0.44 0.38 0.38 0.28 0.29 0.18 0.29 0.56 1.00 1.03 0.90 0.98 1.01 0.97 1.07 1.27 1.63 1.84 1.66 1.56 1.43
0.04 0.04 0.11 0.31 0.58 0.25 0.31 0.68 1.45 1.28 0.89 0.74 0.74 0.50 0.65 0.44 0.39 0.36 0.45 0.50 0.67 0.73 0.67 0.66 0.71 0.63 0.68 0.84 0.82 1.06 1.43 1.59
0.07 0.09 0.10 0.24 0.28 0.39 0.37 0.43 0.51 1.52 1.43 1.17 1.00 1.01 1.23 0.73 0.61 0.48 0.47 0.51 0.41 0.33 0.29 0.35 0.44 0.51 0.60 0.64 0.77 0.72 0.69 0.74
0.06 0.11 0.12 0.19 0.22 0.45 0.53 0.61 0.45 0.55 0.85 1.28 1.04 0.86 1.06 1.26 0.94 0.81 0.35 0.34 0.29 0.28 0.17 0.21 0.26 0.27 0.35 0.44 0.49 0.54 0.62 0.71
0.03 0.05 0.08 0.20 0.27 0.21 0.38 0.62 0.64 0.44 0.47 0.45 1.11 1.07 0.35 0.47 0.90 0.64 0.31 0.13 0.19 0.31 0.14 0.11 0.09 0.13 0.21 0.32 0.37 0.33 0.31 0.36
0.01 0.00 0.00 0.03 0.10 0.10 0.11 0.11 0.23 0.35 0.36 0.30 0.23 0.37 0.28 0.09 0.08 0.20 0.18 0.05 0.07 0.20 0.08 0.06 0.05 0.05 0.05 0.07 0.11 0.16 0.17 0.15
0.00 0.00 0.00 0.00 0.01 0.02 0.06 0.06 0.02 0.02 0.04 0.10 0.16 0.08 0.08 0.07 0.03 0.01 0.01 0.00 0.00 0.01 0.02 0.04 0.07 0.07 0.08 0.07 0.15 0.17 0.18 0.14
0.00 0.00 0.00 0.00 0.00 0.00 0.00 0.01 0.01 0.02 0.02 0.01 0.01 0.02 0.02 0.02 0.02 0.01 0.01 0.01 0.00 0.00 0.00 0.00 0.01 0.01 0.01 0.01 0.01 0.03 0.06 0.11
0.00 0.00 0.00 0.00 0.00 0.00 0.00 0.00 0.00 0.00 0.00 0.00 0.00 0.00 0.00 0.00 0.00 0.00 0.00 0.00 0.00 0.00 0.00 0.00 0.00 0.00 0.00 0.00 0.00 0.00 0.00 0.00

GFSFLT1_prec_precacc12_144.txt.gz
Total_Precipitation_Accumulation
0.00 0.00 0.00 0.00 0.00 0.00 0.00 0.00 0.00 0.00 0.00 0.00 0.03 0.13 0.18 0.24 0.31 0.38 0.47 0.46 0.54 0.53 0.45 0.32 0.33 0.28 0.16 0.03 0.00 0.00 0.00 0.00
0.00 0.00 0.00 0.00 0.00 0.00 0.00 0.00 0.00 0.00 0.00 0.00 0.00 0.02 0.06 0.07 0.20 0.32 0.48 0.59 0.64 0.85 0.85 0.71 0.45 0.33 0.23 0.19 0.08 0.04 0.02 0.03
0.00 0.00 0.00 0.00 0.00 0.00 0.00 0.00 0.00 0.00 0.00 0.00 0.00 0.00 0.05 0.05 0.07 0.22 0.34 0.30 0.43 0.67 0.85 0.96 1.16 0.85 0.56 0.39 0.34 0.13 0.05 0.06
0.00 0.00 0.00 0.00 0.00 0.00 0.00 0.00 0.00 0.00 0.00 0.00 0.00 0.00 0.00 0.04 0.10 0.08 0.05 0.19 0.21 0.35 0.67 0.71 0.66 0.81 0.94 0.98 1.05 0.81 0.23 0.07
0.00 0.00 0.00 0.00 0.00 0.00 0.00 0.00 0.00 0.00 0.00 0.00 0.00 0.00 0.01 0.01 0.02 0.06 0.07 0.20 0.25 0.27 0.34 0.37 0.67 0.84 0.56 0.70 0.56 0.71 0.49 0.13
0.00 0.00 0.00 0.00 0.00 0.00 0.00 0.00 0.00 0.00 0.00 0.00 0.01 0.01 0.02 0.03 0.08 0.23 0.24 0.20 0.27 0.32 0.36 0.39 0.47 0.52 0.52 0.53 0.35 0.24 0.26 0.28
0.00 0.00 0.00 0.00 0.00 0.00 0.00 0.00 0.00 0.00 0.00 0.01 0.02 0.02 0.02 0.03 0.12 0.25 0.32 0.32 0.39 0.49 0.40 0.45 0.85 0.96 0.74 0.54 0.78 0.69 0.48 0.33
0.00 0.00 0.00 0.00 0.00 0.00 0.00 0.00 0.00 0.00 0.00 0.01 0.04 0.03 0.02 0.03 0.09 0.20 0.68 0.74 0.86 1.15 1.39 1.18 1.18 1.34 1.66 0.98 0.79 1.10 1.33 0.94
0.00 0.00 0.00 0.00 0.01 0.01 0.01 0.02 0.02 0.02 0.02 0.03 0.07 0.07 0.06 0.05 0.16 0.13 0.65 1.16 1.15 1.25 2.24 2.77 2.22 1.75 1.96 1.86 1.26 1.14 1.57 1.77
0.00 0.00 0.00 0.01 0.02 0.04 0.08 0.09 0.13 0.14 0.10 0.11 0.11 0.14 0.12 0.10 0.12 0.30 0.34 0.42 0.79 1.17 1.48 1.85 2.39 2.56 2.12 1.94 1.70 1.41 1.42 1.60
0.00 0.00 0.01 0.03 0.06 0.05 0.11 0.24 0.44 0.34 0.27 0.30 0.33 0.29 0.22 0.24 0.15 0.22 0.37 0.58 0.59 0.69 0.96 1.05 0.98 1.07 1.25 1.61 1.82 1.64 1.53 1.50
0.00 0.00 0.01 0.05 0.09 0.07 0.11 0.31 0.68 0.89 0.67 0.58 0.72 0.51 0.60 0.42 0.31 0.31 0.39 0.48 0.67 0.76 0.72 0.72 0.76 0.64 0.68 0.84 0.90 1.11 1.39 1.55
0.01 0.01 0.01 0.01 0.05 0.15 0.15 0.22 0.31 1.10 1.37 1.17 1.02 1.10 1.27 0.75 0.65 0.53 0.60 0.66 0.60 0.49 0.48 0.51 0.57 0.58 0.62 0.64 0.82 0.82 0.77 0.82
0.00 0.00 0.01 0.03 0.03 0.13 0.23 0.34 0.31 0.43 0.79 1.19 0.95 0.88 1.14 1.44 1.25 1.13 0.84 0.76 0.73 0.75 0.52 0.46 0.38 0.35 0.40 0.45 0.50 0.55 0.62 0.69
0.00 0.00 0.00 0.02 0.03 0.04 0.14 0.29 0.33 0.31 0.43 0.43 1.05 1.03 0.35 0.52 1.04 0.84 0.65 0.52 0.66 0.97 0.88 0.74 0.50 0.27 0.28 0.35 0.38 0.36 0.37 0.42
0.00 0.00 0.00 0.00 0.00 0.00 0.01 0.01 0.10 0.20 0.21 0.19 0.17 0.35 0.27 0.08 0.09 0.25 0.24 0.15 0.26 0.74 0.66 0.50 0.37 0.19 0.09 0.06 0.09 0.16 0.22 0.19
0.00 0.00 0.00 0.00 0.00 0.00 0.01 0.01 0.00 0.01 0.01 0.06 0.11 0.07 0.07 0.07 0.04 0.03 0.03 0.00 0.01 0.05 0.03 0.03 0.06 0.02 0.02 0.02 0.02 0.03 0.03 0.03
0.00 0.00 0.00 0.00 0.00 0.00 0.00 0.00 0.01 0.01 0.01 0.00 0.01 0.02 0.02 0.03 0.02 0.01 0.02 0.02 0.00 0.00 0.00 0.00 0.00 0.00 0.00 0.00 0.01 0.01 0.02 0.03
0.00 0.00 0.00 0.00 0.00 0.00 0.00 0.00 0.00 0.00 0.00 0.00 0.00 0.00 0.00 0.00 0.00 0.00 0.00 0.00 0.00 0.00 0.00 0.00 0.00 0.00 0.00 0.00 0.00 0.00 0.00 0.00

GFSFLT1_prec_precacc12_147.txt.gz
Total_Precipitation_Accumulation
0.00 0.00 0.00 0.00 0.00 0.00 0.00 0.00 0.00 0.00 0.00 0.00 0.00 0.00 0.00 0.01 0.05 0.21 0.37 0.44 0.54 0.53 0.45 0.32 0.33 0.30 0.24 0.23 0.18 0.12 0.03 0.00
0.00 0.00 0.00 0.00 0.00 0.00 0.00 0.00 0.00 0.00 0.00 0.00 0.00 0.00 0.00 0.00 0.00 0.07 0.27 0.51 0.64 0.85 0.85 0.71 0.45 0.33 0.25 0.26 0.28 0.25 0.18 0.09
0.00 0.00 0.00 0.00 0.00 0.00 0.00 0.00 0.00 0.00 0.00 0.00 0.00 0.00 0.00 0.00 0.00 0.01 0.07 0.15 0.40 0.66 0.86 0.97 1.17 0.86 0.57 0.40 0.40 0.40 0.62 0.73
0.00 0.00 0.00 0.00 0.00 0.00 0.00 0.00 0.00 0.00 0.00 0.00 0.00 0.00 0.00 0.00 0.00 0.00 0.01 0.06 0.17 0.35 0.67 0.71 0.66 0.82 0.94 0.98 1.06 1.04 0.91 0.89
0.00 0.00 0.00 0.00 0.00 0.00 0.00 0.00 0.00 0.00 0.00 0.00 0.00 0.00 0.01 0.01 0.01 0.01 0.00 0.03 0.16 0.26 0.34 0.38 0.67 0.84 0.56 0.70 0.56 0.75 0.95 1.09
0.00 0.00 0.00 0.00 0.00 0.00 0.00 0.00 0.00 0.00 0.00 0.00 0.00 0.01 0.02 0.02 0.02 0.02 0.01 0.01 0.05 0.23 0.36 0.40 0.48 0.53 0.52 0.53 0.35 0.25 0.27 0.36
0.00 0.00 0.00 0.00 0.00 0.00 0.00 0.00 0.00 0.00 0.00 0.00 0.01 0.02 0.02 0.02 0.02 0.03 0.01 0.03 0.05 0.19 0.34 0.44 0.86 0.97 0.74 0.53 0.78 0.68 0.46 0.34
0.00 0.00 0.00 0.00 0.00 0.00 0.00 0.00 0.00 0.00 0.00 0.00 0.01 0.02 0.02 0.02 0.03 0.04 0.03 0.03 0.05 0.15 0.74 0.96 1.08 1.32 1.66 0.94 0.78 1.09 1.32 0.90
0.00 0.00 0.00 0.00 0.00 0.00 0.01 0.01 0.02 0.01 0.00 0.01 0.02 0.02 0.03 0.04 0.04 0.04 0.06 0.10 0.09 0.11 0.35 1.31 1.40 1.38 1.70 1.64 1.14 1.08 1.55 1.72
0.00 0.00 0.00 0.00 0.00 0.01 0.06 0.06 0.03 0.03 0.05 0.04 0.03 0.04 0.04 0.06 0.06 0.05 0.06 0.10 0.14 0.17 0.22 0.82 1.30 1.31 1.30 1.48 1.37 1.08 1.13 1.50
0.00 0.00 0.00 0.00 0.01 0.02 0.04 0.04 0.06 0.07 0.07 0.11 0.13 0.12 0.08 0.16 0.14 0.15 0.11 0.14 0.14 0.15 0.38 0.61 0.57 0.57 0.65 1.39 1.68 1.49 1.37 1.34
0.00 0.00 0.00 0.01 0.01 0.02 0.03 0.04 0.07 0.13 0.18 0.28 0.27 0.27 0.31 0.31 0.31 0.31 0.31 0.30 0.32 0.30 0.27 0.41 0.56 0.53 0.66 0.84 0.88 1.12 1.37 1.50
0.00 0.00 0.00 0.00 0.00 0.01 0.03 0.06 0.11 0.30 0.52 0.61 0.62 0.92 1.15 0.64 0.65 0.56 0.62 0.65 0.57 0.39 0.34 0.33 0.48 0.64 0.74 0.79 0.88 0.87 0.80 0.85
0.00 0.00 0.00 0.00 0.00 0.00 0.02 0.08 0.07 0.17 0.43 0.72 0.72 0.78 1.12 1.43 1.17 1.04 0.86 0.80 0.87 0.97 0.73 0.59 0.54 0.56 0.59 0.59 0.58 0.64 0.71 0.86
0.00 0.00 0.00 0.00 0.00 0.00 0.00 0.03 0.04 0.09 0.21 0.26 0.72 0.86 0.33 0.52 1.04 0.77 0.61 0.59 0.80 1.22 1.39 1.40 1.15 0.86 0.88 0.75 0.60 0.68 0.58 0.66
0.00 0.00 0.00 0.00 0.00 0.00 0.00 0.00 0.00 0.01 0.02 0.02 0.05 0.26 0.25 0.08 0.09 0.25 0.24 0.16 0.31 0.88 0.92 0.99 0.82 0.60 0.52 0.24 0.23 0.39 0.55 0.32
0.00 0.00 0.00 0.00 0.00 0.00 0.00 0.00 0.00 0.00 0.00 0.01 0.02 0.03 0.05 0.07 0.04 0.03 0.03 0.00 0.02 0.07 0.05 0.09 0.26 0.20 0.11 0.04 0.02 0.04 0.04 0.02
0.00 0.00 0.00 0.00 0.00 0.00 0.00 0.00 0.00 0.00 0.00 0.00 0.00 0.01 0.01 0.01 0.02 0.01 0.02 0.02 0.00 0.00 0.00 0.00 0.00 0.01 0.01 0.02 0.00 0.00 0.00 0.00
0.00 0.00 0.00 0.00 0.00 0.00 0.00 0.00 0.00 0.00 0.00 0.00 0.00 0.00 0.00 0.00 0.00 0.00 0.00 0.00 0.00 0.00 0.00 0.00 0.00 0.00 0.00 0.00 0.00 0.00 0.00 0.00